Location: Long Geng
(2.6167°N, 114.1333°E)
Time: 00:48:16
(UTC+00:00)

Cosmos 1455 - Pass Details

Date: 14 May 2021
Orbit: 498 x 520 km, 82.5° (Epoch: 19 June)

Event Time Altitude Azimuth Distance (km) Brightness Sun altitude
Rises 20:22:54 0° 359° (N) 2,627 6.1 -26.6°
Reaches altitude 10° 20:25:01 10° 0° (N) 1,743 5.1 -26.1°
Enters shadow 20:27:12 33° 6° (N) 893 3.6 -25.6°
